Regional Weather Roundup
Issued by NWS

Home | Current Version | Previous Version | Text Only | Print | Product List | Glossary Off
Versions: 1 2 3 4 5 6 7 8 9 10 11 12 13 14 15 16 17 18 19 20 21 22 23 24 25 26 27 28 29 30 31 32 33 34 35 36 37 38 39 40 41 42 43 44 45 46 47 48 49 50

000
ASUS45 KTFX 160219
RWRMT
MONTANA HOURLY WEATHER ROUNDUP
NATIONAL WEATHER SERVICE GREAT FALLS MT
819 PM MDT MON SEP 15 2014

NOTE: "FAIR" INDICATES FEW OR NO CLOUDS BELOW 12000 FEET WITH NO
SIGNIFICANT WEATHER AND/OR OBSTRUCTIONS TO VISIBILITY.

* THESE STATIONS ARE NOT UNDER NWS QUALITY CONTROL. THEY DO NOT
   REPORT WEATHER SUCH AS PRECIPITATION OR FOG.

MTZ001>007-043-160300-
WEST OF THE DIVIDE
CITY           SKY/WX    TMP DP  RH WIND       PRES   REMARKS
KALISPELL      CLEAR     59  39  48 N3        29.99S
MISSOULA       CLEAR     73  30  20 N8        29.98F
BUTTE          CLEAR     66  27  23 CALM      30.14S
MULLAN PASS    CLEAR     63  23  22 CALM      30.14F
* LINCOLN      N/A       72  23  16 S3G10      N/A
* LOOKOUT PASS N/A       63  32  31 N2         N/A
* POLSON       N/A       63  32  31 N/A        N/A
* RONAN APT    CLEAR     68  32  26 NW5        N/A
* SEELEY LAKE  N/A       74  25  16 NW2G7      N/A
* THOMP F APT  CLEAR     65  27  24 N8         N/A
$$

MTZ008-052>055-160300-
SOUTHWEST MONTANA
CITY           SKY/WX    TMP DP  RH WIND       PRES   REMARKS
BOZEMAN        CLEAR     59  41  51 SE8       30.08R
DILLON         HAZE      70  27  20 N3        30.09F
W YELLOWSTONE  CLEAR     54  25  33 W3        30.22R
* THREE FORKS  CLEAR     68  55  63 N/A        N/A
* BOULDER HILL N/A       61  24  24 SW2        N/A
* MONIDA PASS  N/A       63  25  24 SW4        N/A
* RAYNOLDS PAS N/A       63  58  84 NW4        N/A
* WHITEHALL    N/A       74  41  31 E3         N/A
* WISE RIVER   N/A       71  24  17 W5G10      N/A
$$

MTZ009>010-012-014-046-048-049-054-160300-
EAST SLOPES AND CENTRAL MONTANA
CITY           SKY/WX    TMP DP  RH WIND       PRES   REMARKS
CUT BANK       CLEAR     61  36  39 W7        30.01S
GREAT FALLS    CLEAR     63  39  41 E8        30.01S
HELENA         CLEAR     68  41  38 SW9       30.04R
MALMSTROM AFB  CLEAR     61  39  44 NE8       30.03S
* CONRAD       CLEAR     64  45  50 N/A        N/A
* EAST GLACIER N/A       58  34  41 W3G9       N/A
* MONARCH      N/A       55  32  42 E4         N/A
* PENDROY      N/A       64  34  33 N/A        N/A
* ROGERS PASS  N/A       56  29  36 NW4        N/A
* SAINT MARY   N/A       64  29  27 S4G10      N/A
* SWEET GRASS  N/A       70  38  31 SE4        N/A
* WHITE SULPH  N/A       60  28  30 E3         N/A
$$

MTZ011-013-016-021-035-040-045-047-050-051-160300-
NORTH CENTRAL MONTANA
CITY           SKY/WX    TMP DP  RH WIND       PRES   REMARKS
HAVRE          CLEAR     61  45  56 E8        29.99F
LEWISTOWN      CLEAR     63  45  52 CALM      30.06S
* CHINOOK      CLEAR     61  45  56 E6        30.00S
* FORT BENTON  CLEAR     66  41  40 E6        30.00F
* CHESTER      N/A       66  41  40 SE4        N/A
* DENTON       N/A       60  42  52 NE4        N/A
* GEYSER       N/A       56  42  60 SE9        N/A
* JUDITH GAP   N/A       64  39  40 SE5        N/A
* LOMA         N/A       63  44  50 E8         N/A
$$

MTZ017>020-022>027-061-062-160300-
NORTHEAST MONTANA
CITY           SKY/WX    TMP DP  RH WIND       PRES   REMARKS
GLASGOW        CLEAR     55  37  51 E10       30.04S
GLENDIVE       CLEAR     57  36  46 NE3       30.08S
JORDAN         CLEAR     59  45  60 E3        30.03F
SIDNEY         CLEAR     48  36  63 CALM      30.08R
WOLF POINT     CLEAR     55  37  51 CALM      30.05S
* BEAVER HILL  N/A       57  37  47 N/A        N/A
* CIRCLE       N/A       62  41  46 N/A        N/A
* LINDSAY DVD  N/A       53  37  55 N/A        N/A
* NAVAJO       N/A       54  32  43 W7         N/A
* SACO         N/A       60  41  50 NE8        N/A
$$

MTZ028>042-056>058-160300-
SOUTHCENTRAL AND SOUTHEAST MONTANA
CITY           SKY/WX    TMP DP  RH WIND       PRES   REMARKS
BAKER          CLEAR     50  43  77 S7        30.08F
BILLINGS       FAIR      66  45  47 E3        30.05F
LIVINGSTON     FAIR      63  30  29 E3        30.08R
MILES CITY     CLEAR     63  39  41 NE9       30.04S
* LAUREL APT   CLEAR     63  41  45 N/A        N/A
* ROUNDUP APT  CLEAR     66  41  40 N/A        N/A
* ALZADA       N/A       57  46  67 E9         N/A
* HYSHAM       N/A       63  34  34 VRB1       N/A
* LAME DEER    N/A       63  40  43 N/A        N/A
* REED POINT   N/A       61  41  48 N/A        N/A
* ROSCOE HILL  N/A       62  30  30 SW5        N/A
$$

REGIONAL REPORTS...DAKOTAS
CITY           SKY/WX    TMP DP  RH WIND       PRES   REMARKS
WILLISTON      CLEAR     45  36  71 CALM      30.06S
DICKINSON      CLEAR     52  37  57 S6        30.09S
BEACH          N/A       48  41  77 S3        30.09S
CROSBY         CLEAR     45  39  80 S9        30.06S
TIOGA          CLEAR     45  32  60 CALM      30.11R
WATFORD CITY   HAZE      48  36  63 CALM      30.06R VSB 3
BISMARCK       CLEAR     55  37  51 S7        30.12S
GRAND FORKS    CLEAR     54  41  62 SW6       30.08R
FARGO          CLEAR     52  39  61 S9        30.13S
BUFFALO SD     CLEAR     55  43  64 SE10      30.04F
RAPID CITY     CLEAR     54  45  72 SE8       30.12F
$$

REGIONAL REPORTS...WYOMING/IDAHO/WASHINGTON
CITY           SKY/WX    TMP DP  RH WIND       PRES   REMARKS
GILLETTE       CLEAR     57  45  64 SE6       30.10S
SHERIDAN       CLEAR     55  46  72 VRB5      30.08S
CODY           CLEAR     61  45  56 CALM      30.15R
YELLOWSTONE LA CLEAR     50  36  59 NW5       30.33R
SALMON         PTCLDY    66  34  31 SE6       30.00S
MULLAN PASS    CLEAR     63  23  22 CALM      30.14S
SAND POINT     CLEAR     59  46  62 CALM      29.94S
SPOKANE        MOCLDY    75  30  19 NE6       29.92F
$$

REGIONAL REPORTS...ALBERTA
CITY           SKY/WX    TMP DP  RH WIND       PRES   REMARKS
CALGARY        FAIR      64  43  47 E7        29.99S
LETHBRIDGE     N/A       61  45  56 E7        29.97F
MEDICINE HAT   N/A       64  45  50 SE5       29.95S
EDMONTON       FAIR      61  45  56 NW2       29.94S
WATERTON GATE  N/A       55  41  59 S3         N/A
CARDSTON       N/A       63  46  54 NW3        N/A
MILK RIVER     N/A       57  45  64 NE8        N/A
$$

REGIONAL REPORTS...SASKATCHEWAN
CITY           SKY/WX    TMP DP  RH WIND       PRES   REMARKS
SWIFT CURRENT  HAZE      59  37  44 SE6       30.00S VSB 1 1/4
REGINA         N/A       55  43  64 S2        30.01F
VAL MARIE      N/A       54  41  62 S7         N/A
ASSINIBOIA     N/A       55  36  49 E5         N/A
CORONACH       N/A       48  34  59 S6         N/A

$$




USA.gov is the U.S. government's official web portal to all federal, state and local government web resources and services.